Tracking 31011 objects as of 12-Jul-2025
HD Live streaming from Space Station
objects crossing your sky now

ONEWEB-0300

Track ONEWEB-0300 now!
10-day predictions
ONEWEB-0300 is classified as:


NORAD ID: 49089
Int'l Code: 2021-075Q
Perigee: 1,219.5 km
Apogee: 1,222.2 km
Inclination: 87.9 °
Period: 109.7 minutes
Semi major axis: 7591 km
RCS: Unknown
Launch date: August 21, 2021
Source: United Kingdom (UK)
Launch site: TYURATAM MISSILE AND SPACE COMPLEX (TTMTR)
Your satellite tracking list
Your tracking list is empty




NASA's NSSDC Master Catalog

Two Line Element Set (TLE):
1 49089U 21075Q   25192.85748652  .00000287  00000-0  76137-3 0  9993
2 49089  87.8855  58.3268 0001809  92.9464 267.1872 13.12442892190567
Source of the keplerian elements: AFSPC